Date String (YYYY-MM-DD hh:mm:ss) UTC,Instrument flags,Ambient pressure (hPa),Sample flow (lpm),Bypass flow (lpm),Sample temperature (°C),Ambient temperature (°C),ASC tube jacket temperature (°C),LED temperature (°C),Box temperature (°C),Sample RH (%),Span deviation,Mass concentration (μg/m³),Mass concentration (μg/m³),Mass concentration (μg/m³)
DateTimeUTC,F1_M11,P_M11,Q1_M11,Q2_M11,T1_M11,T2_M11,T3_M11,T4_M11,T5_M11,U1_M11,ZSPAN_M11,X0_M11,X2_M11,X1_M11
2022-09-06 03:00:00,,0827.5,4.98,0.00,29.4,26.3,00.0,38.1,31.0,17.1,0000.0,0016.18,0007.57,0006.47
2022-09-06 03:01:00,,0827.6,5.01,0.00,29.3,26.6,00.0,38.0,31.0,17.2,0000.0,0017.49,0007.64,0006.49
2022-09-06 03:02:00,,0827.6,5.00,0.00,29.3,27.0,00.0,38.0,31.0,17.3,0000.0,0017.65,0007.67,0006.51
2022-09-06 03:03:00,,0827.6,4.99,0.00,29.3,27.3,00.0,38.0,31.1,17.2,0000.0,0018.10,0007.68,0006.51
2022-09-06 03:04:00,,0827.6,5.01,0.00,29.3,27.6,00.0,38.0,31.2,17.2,0000.0,0018.72,0007.70,0006.53
2022-09-06 03:05:00,,0827.6,5.01,0.00,29.4,27.9,00.0,38.0,31.3,17.2,0000.0,0020.34,0007.76,0006.54
2022-09-06 03:06:00,,0827.6,5.01,0.00,29.4,28.1,00.0,38.1,31.3,17.2,0000.0,0020.74,0007.80,0006.54
2022-09-06 03:07:00,,0827.6,4.98,0.00,29.4,28.2,00.0,38.1,31.4,17.1,0000.0,0020.31,0007.82,0006.54
2022-09-06 03:08:00,,0827.7,5.02,0.00,29.5,28.4,00.0,38.1,31.4,17.1,0000.0,0020.71,0007.91,0006.56
2022-09-06 03:09:00,,0827.7,5.00,0.00,29.5,28.5,00.0,38.1,31.5,17.1,0000.0,0020.96,0007.94,0006.55
2022-09-06 03:10:00,,0827.7,5.00,0.00,29.6,28.6,00.0,38.2,31.5,17.0,0000.0,0020.60,0007.98,0006.56
2022-09-06 03:11:00,,0827.7,5.00,0.00,29.6,27.8,00.0,38.2,31.5,17.0,0000.0,0019.81,0008.00,0006.57
2022-09-06 03:12:00,,0827.7,5.00,0.00,29.5,26.5,00.0,38.2,31.2,17.0,0000.0,0018.51,0007.98,0006.60
2022-09-06 03:13:00,,0827.7,5.01,0.00,29.5,26.3,00.0,38.1,31.2,17.0,0000.0,0018.56,0008.02,0006.61
2022-09-06 03:14:00,,0827.7,5.00,0.00,29.4,26.5,00.0,38.1,31.1,17.1,0000.0,0018.16,0008.01,0006.62
2022-09-06 03:15:00,,0827.7,4.99,0.00,29.4,26.8,00.0,38.1,31.1,17.1,0000.0,0017.91,0007.98,0006.62
2022-09-06 03:16:00,,0827.7,5.01,0.00,29.3,27.2,00.0,38.1,31.1,17.1,0000.0,0018.28,0008.01,0006.62
2022-09-06 03:17:00,,0827.7,5.01,0.00,29.4,27.5,00.0,38.1,31.2,17.1,0000.0,0018.19,0008.03,0006.62
2022-09-06 03:18:00,,0827.7,5.01,0.00,29.4,27.7,00.0,38.1,31.3,17.1,0000.0,0017.66,0007.97,0006.61
2022-09-06 03:19:00,,0827.7,4.98,0.00,29.4,28.0,00.0,38.1,31.3,17.2,0000.0,0017.72,0007.92,0006.60
2022-09-06 03:20:00,,0827.7,5.00,0.00,29.4,28.2,00.0,38.1,31.4,17.1,0000.0,0018.02,0007.88,0006.61
2022-09-06 03:21:00,,0827.7,5.02,0.00,29.5,28.3,00.0,38.1,31.4,17.0,0000.0,0018.63,0007.88,0006.63
2022-09-06 03:22:00,,0827.7,4.99,0.00,29.5,28.5,00.0,38.1,31.5,17.0,0000.0,0019.84,0007.88,0006.61
2022-09-06 03:23:00,,0827.7,5.01,0.00,29.6,28.6,00.0,38.2,31.5,16.9,0000.0,0020.44,0007.89,0006.57
2022-09-06 03:24:00,,0827.7,5.00,0.00,29.6,28.3,00.0,38.2,31.5,16.8,0000.0,0021.35,0007.87,0006.54
2022-09-06 03:25:00,,0827.7,5.01,0.00,29.6,26.9,00.0,38.2,31.3,16.9,0000.0,0021.25,0007.82,0006.53
2022-09-06 03:26:00,,0827.7,5.00,0.00,29.5,26.2,00.0,38.1,31.2,16.9,0000.0,0020.69,0007.81,0006.52
2022-09-06 03:27:00,,0827.7,4.99,0.00,29.4,26.4,00.0,38.1,31.2,16.9,0000.0,0019.54,0007.82,0006.52
2022-09-06 03:28:00,,0827.7,5.01,0.00,29.4,26.7,00.0,38.1,31.1,17.0,0000.0,0018.83,0007.77,0006.51
2022-09-06 03:29:00,,0827.7,5.01,0.00,29.4,27.0,00.0,38.1,31.1,17.0,0000.0,0019.17,0007.81,0006.52
2022-09-06 03:30:00,,0827.7,5.00,0.00,29.4,27.4,00.0,38.1,31.2,17.0,0000.0,0019.56,0007.82,0006.51
2022-09-06 03:31:00,,0827.8,5.00,0.00,29.4,27.7,00.0,38.1,31.2,17.0,0000.0,0019.70,0007.80,0006.50
2022-09-06 03:32:00,,0827.7,5.01,0.00,29.4,27.9,00.0,38.1,31.3,16.9,0000.0,0019.31,0007.81,0006.48
2022-09-06 03:33:00,,0827.8,5.00,0.00,29.4,28.1,00.0,38.1,31.3,16.8,0000.0,0018.85,0007.81,0006.47
2022-09-06 03:34:00,,0827.8,5.00,0.00,29.5,28.3,00.0,38.1,31.4,16.8,0000.0,0019.68,0007.80,0006.48
2022-09-06 03:35:00,,0827.8,5.01,0.00,29.5,28.4,00.0,38.1,31.5,16.8,0000.0,0019.59,0007.80,0006.49
2022-09-06 03:36:00,,0827.9,4.98,0.00,29.5,28.6,00.0,38.2,31.5,16.8,0000.0,0020.70,0007.81,0006.50
2022-09-06 03:37:00,,0827.9,5.01,0.00,29.6,28.7,00.0,38.2,31.6,16.8,0000.0,0021.53,0007.84,0006.49
2022-09-06 03:38:00,,0827.9,4.99,0.00,29.6,28.7,00.0,38.2,31.6,16.7,0000.0,0021.51,0007.82,0006.48
2022-09-06 03:39:00,,0827.9,5.01,0.00,29.6,27.5,00.0,38.2,31.5,16.6,0000.0,0021.33,0007.85,0006.48
2022-09-06 03:40:00,,0827.9,4.99,0.00,29.6,26.4,00.0,38.2,31.3,16.7,0000.0,0021.05,0007.86,0006.49
2022-09-06 03:41:00,,0827.9,5.00,0.00,29.5,26.4,00.0,38.2,31.3,16.8,0000.0,0020.59,0007.81,0006.48
2022-09-06 03:42:00,,0827.9,5.00,0.00,29.5,26.6,00.0,38.1,31.2,16.8,0000.0,0020.20,0007.85,0006.48
2022-09-06 03:43:00,,0827.9,4.99,0.00,29.4,27.0,00.0,38.1,31.2,16.9,0000.0,0019.98,0007.86,0006.48
2022-09-06 03:44:00,,0827.9,5.02,0.00,29.4,27.3,00.0,38.1,31.2,16.9,0000.0,0019.85,0007.82,0006.49
2022-09-06 03:45:00,,0827.9,5.00,0.00,29.4,27.6,00.0,38.1,31.3,16.9,0000.0,0020.37,0007.85,0006.50
2022-09-06 03:46:00,,0827.9,5.00,0.00,29.5,27.9,00.0,38.1,31.3,16.9,0000.0,0020.04,0007.86,0006.49
2022-09-06 03:47:00,,0827.9,5.00,0.00,29.5,28.1,00.0,38.1,31.4,16.8,0000.0,0019.07,0007.89,0006.48
2022-09-06 03:48:00,,0827.9,4.99,0.00,29.5,28.3,00.0,38.2,31.4,16.8,0000.0,0018.53,0007.89,0006.48
2022-09-06 03:49:00,,0828.0,5.01,0.00,29.5,28.4,00.0,38.2,31.5,17.2,0000.0,0019.58,0007.88,0006.48
2022-09-06 03:50:00,,0828.0,5.01,0.00,29.6,28.6,00.0,38.2,31.5,18.6,0000.0,0020.67,0007.88,0006.49
2022-09-06 03:51:00,,0828.0,4.99,0.00,29.6,28.7,00.0,38.2,31.6,18.3,0000.0,0020.95,0007.84,0006.48
2022-09-06 03:52:00,,0828.0,5.01,0.00,29.7,28.5,00.0,38.3,31.6,17.8,0000.0,0021.47,0007.86,0006.49
2022-09-06 03:53:00,,0828.1,4.98,0.00,29.7,27.3,00.0,38.3,31.5,18.3,0000.0,0022.12,0007.89,0006.50
2022-09-06 03:54:00,,0828.1,5.00,0.00,29.6,26.2,00.0,38.2,31.4,19.9,0000.0,0023.10,0007.92,0006.51
2022-09-06 03:55:00,,0828.1,5.00,0.00,29.5,26.3,00.0,38.2,31.3,20.2,0000.0,0024.50,0008.03,0006.53
2022-09-06 03:56:00,,0828.1,5.01,0.00,29.5,26.6,00.0,38.1,31.1,20.6,0000.0,0024.10,0008.11,0006.54
2022-09-06 03:57:00,,0828.1,5.01,0.00,29.4,26.9,00.0,38.1,31.1,20.5,0000.0,0024.65,0008.16,0006.56
2022-09-06 03:58:00,,0828.1,5.00,0.00,29.4,27.3,00.0,38.1,31.2,20.3,0000.0,0026.89,0008.17,0006.57
2022-09-06 03:59:00,,0828.1,5.00,0.00,29.4,27.6,00.0,38.1,31.2,19.9,0000.0,0028.10,0008.22,0006.58
